Location: Finney State Fishing Lake and Wildlife Area
(38.1834°N, 100.3310°W)
Time: 17:53:08
(UTC+00:00)

Tiangong - Pass Details

Date: 01 December 2022
Orbit: 383 x 386 km, 41.5° (Epoch: 30 January)

Event Time Altitude Azimuth Distance (km) Brightness Sun altitude
Rises 00:43:35 0° 246° (WSW) 2,250 3.5 -15.8°
Reaches altitude 10° 00:45:38 10° 244° (WSW) 1,401 2.0 -16.2°
Maximum altitude 00:48:48 75° 159° (SSE) 402 -2.2 -16.8°
Enters shadow 00:49:26 52° 90° (E) 488 -2.1 -16.9°
